Location: Broekland
(52.3610°N, 6.2005°E)
Time: 10:18:30
(UTC+00:00)

COSMOS 2406 - Pass Details

Date: 19 May 2025
Orbit: 845 x 859 km, 71.0° (Epoch: 23 June)

Event Time Altitude Azimuth Distance (km) Brightness Sun altitude
Exits shadow 21:59:09 22° 167° (SSE) 1,767 4.3 -14.9°
Maximum altitude 22:02:20 42° 109° (ESE) 1,199 3.7 -15.1°
Drops below altitude 10° 22:07:39 10° 41° (NE) 2,490 6.0 -15.4°
Sets 22:10:14 0° 35° (NE) 3,433 6.9 -15.5°
